www.pogodaiklimat.ru

Погода и климат >> Архив погоды >> Россия >> Свердловская область >> Серов


АРХИВ ПОГОДЫ в Серове

Время (UTC), дата Ветер
(напр.,м/с)
 
Видим.   Явления Облачность Т
(С)
Тd
(С)
f
(%)
Тe
(С)
Тes
(С)
Комфортность P
(гПа)
Po
(гПа)
Тmin
(С)
Tmax
(С)
R
(мм)
R24
(мм)
S
(см)
15 20.06 СЗ 1
{12}
50 км в посл. час ливневой дождь {гроза} 9/9 300 м
[Cb calv]
+14.4 +12.3 87 +15 +15 холодно 1004.9 990.2 +22.7 2
18 20.06 З 3 10 км {гроза, ливн. осадки} 4/4 600 м
[Sc]
+13.5 +11.8 89 +12 +12 прохладно 1005.6 990.9
21 20.06 З 3 10 км ясно +11.7 +9.4 86 +10 +10 прохладно 1006.7 991.8
00 21.06 З 3 50 км ясно +10.5 +7.7 83 +8 +9 прохладно 1008.3 993.4
03 21.06 З 5 50 км 4/4 600 м
[Cu Sc]
+14.1 +7.1 63 +13 +14 прохладно 1009.0 994.3 +9.9 3
06 21.06 СЗ 6-11
{12}
50 км 4/4 600 м
[Cu Sc]
+13.6 +3.5 50 +12 +15 очень
холодно
1010.8 996.0
09 21.06 З 6-12
{15}
50 км 6/6 600 м
[Cu Sc]
+14.4 +1.3 41 +13 +15 очень
холодно
1012.3 997.5
12 21.06 СЗ 5
{13}
50 км 8/8 600 м
[Cu Sc]
+14.4 -1.5 33 +13 +14 очень
холодно
1014.1 999.3
15 21.06 СЗ 4
{14}
50 км 8/8 600 м
[Sc]
+13.5 -1.5 35 +12 +12 холодно 1015.0 1000.1 +15.2
18 21.06 В 1 10 км 9/9 600 м
[Sc]
+10.3 +2.3 58 +10 +10 холодно 1015.8 1000.7
21 21.06 СВ 1 10 км 9/9 600 м
[Sc]
+8.8 +3.3 68 +8 +8 холодно 1016.3 1001.2
00 22.06 З 1 50 км 3/3 600 м
[Cu hum]
+6.1 +2.5 78 +5 +5 холодно 1017.4 1002.1
03 22.06 ЮЗ 1 50 км 3/0
[Ci fib]
+12.7 +3.9 55 +13 +18 прохладно 1017.9 1003.0 +5.2
06 22.06 СЗ 2 50 км 9/9 600 м
[Cu Sc]
+16.4 +2.8 40 +17 +18 прохладно 1017.5 1002.8
09 22.06 З 1 50 км 10/10 600 м
[Sc]
+19.7 +0.8 28 +21 +21 комфорт 1016.3 1001.7
12 22.06 ЮВ 2 50 км 10/10 600 м
[Sc]
+17.5 +6.3 48 +18 +18 прохладно 1014.4 999.7
15 22.06 ЮВ 3 20 км слаб. дождь 10/10 300 м
[Frnb]
+12.8 +9.5 80 +11 +11 очень
холодно
1012.7 997.8 +19.7 0.8
18 22.06 Ю 1 2000 м слаб. дождь 10/10 300 м
[Frnb]
+12.1 +9.0 81 +12 +12 прохладно 1011.1 996.2
21 22.06 ЮВ 1 10 км {дождь} 10/10 600 м
[Sc]
+11.4 +9.5 88 +11 +11 прохладно 1008.6 993.7
00 23.06 Ю 1 50 км {дождь} 8/8 600 м
[Sc]
+11.3 +9.6 89 +11 +11 по сезону 1008.3 993.4
03 23.06 С 1 50 км 6/3 600 м
[Sc Ci sp]
+17.1 +13.2 78 +18 +22 тепло 1006.5 992.0 +11.3 1
06 23.06 ЮЗ 2 50 км 10/9 600 м
[Cu Sc Ci fib]
+23.8 +15.1 58 +27 +28 жарко 1004.9 990.7
09 23.06 СЗ 3 50 км 10/10 600 м
[Sc]
+22.6 +15.5 64 +27 +27 душно 1005.0 990.8
12 23.06 З 2 20 км 8/6 600 м
[Sc Ci fib]
+21.6 +16.6 73 +25 +28 комфорт 1005.1 990.8
15 23.06 З 3 50 км 6/3 600 м
[Sc Ci fib]
+23.4 +15.5 61 +28 +28 душно 1005.3 991.1 +24.2
18 23.06 З 4 10 км 5/4 600 м
[Sc Ci fib]
+20.9 +14.3 66 +24 +24 комфорт 1006.7 992.3
21 23.06 З 3 10 км 3/3 600 м
[Sc Ci fib]
+17.4 +13.8 79 +17 +17 тепло 1007.8 993.3
00 24.06 З 3 50 км 5/3 600 м
[Sc Ci sp]
+17.3 +12.9 75 +17 +17 тепло 1008.9 994.3
03 24.06 СЗ 4 50 км 9/4 600 м
[Sc Ci sp]
+19.3 +11.0 59 +20 +22 тепло 1010.1 995.6 +17.0
06 24.06 З 4 50 км 8/3 600 м
[Cu med, cong Ci fib]
+21.1 +8.1 43 +22 +27 комфорт 1010.9 996.5
09 24.06 З 4
{13}
50 км 8/8 600 м
[Cu med, cong]
+23.8 +3.0 26 +23 +25 комфорт 1010.8 996.5
12 24.06 СЗ 4
{13}
50 км 8/6 600 м
[Cu med, cong Ci fib]
+22.2 +1.1 25 +22 +24 комфорт 1011.5 997.1
15 24.06 З 3
{12}
50 км 3/3 600 м
[Cu hum]
+21.7 -0.2 23 +21 +22 комфорт 1012.3 997.8 +23.8
18 24.06 СВ 2 10 км 1/1 600 м
[Sc]
+15.7 +5.4 50 +16 +16 по сезону 1013.9 999.1
21 24.06 С 1 10 км 9/9 600 м
[Sc]
+11.3 +6.3 71 +11 +11 прохладно 1014.7 999.8
00 25.06 С 1 50 км 10/8 600 м
[Sc Ci fib]
+10.0 +6.9 81 +10 +10 по сезону 1014.9 999.8
03 25.06 С 2 50 км 9/9 600 м
[Sc]
+13.3 +7.3 67 +13 +13 прохладно 1015.5 1000.6 +9.6
06 25.06 С 2 20 км слаб. дождь 10/10 300 м
[Frnb]
+11.9 +8.3 79 +11 +11 очень
холодно
1016.6 1001.7
09 25.06 СВ 2 50 км {дождь} 10/10 600 м
[Sc]
+13.3 +5.9 61 +13 +13 очень
холодно
1016.4 1001.5
12 25.06 С 1 50 км {дождь} 10/10 600 м
[Sc]
+14.3 +6.6 60 +15 +15 очень
холодно
1016.4 1001.5
15 25.06 СВ 1 50 км 10/10 600 м
[Sc]
+14.8 +6.1 56 +15 +15 прохладно 1016.2 1001.4 +15.1 1
18 25.06 З 2 10 км 10/10 600 м
[Sc]
+12.5 +8.0 74 +12 +12 прохладно 1016.4 1001.4
21 25.06 З 1 10 км 10/10 600 м
[Sc]
+10.5 +8.0 84 +10 +10 прохладно 1016.2 1001.1
00 26.06 С 2 50 км 4/4 600 м
[Sc]
+10.8 +3.9 62 +10 +10 по сезону 1016.5 1001.4
03 26.06 С 2 50 км 5/5 600 м
[Sc]
+13.2 +4.8 57 +13 +15 прохладно 1016.7 1001.8 +9.8
06 26.06 СВ 2 50 км 8/8 600 м
[Cu Sc]
+17.0 +2.4 37 +17 +20 прохладно 1016.2 1001.4
09 26.06 СЗ 2 50 км 9/9 600 м
[Cu Sc]
+17.7 +2.7 37 +18 +20 прохладно 1015.6 1000.9
12 26.06 С 2 50 км 6/6 600 м
[Cu hum]
+19.9 +1.5 29 +21 +24 комфорт 1014.4 999.9
15 26.06 В 1 50 км 8/8 600 м
[Cu Sc]
+17.4 +1.7 35 +18 +19 по сезону 1014.3 999.6 +19.9
18 26.06 штиль 0 10 км 4/4 600 м
[Sc]
+11.9 +5.9 67 +12 +12 прохладно 1014.6 999.6
21 26.06 З 1 10 км ясно +7.8 +5.3 84 +7 +7 холодно 1014.6 999.4
00 27.06 З 1 50 км ясно +6.7 +4.3 85 +6 +6 холодно 1014.8 999.5
03 27.06 ЮЗ 2 50 км 4/0
[Ci sp]
+13.6 +7.1 65 +13 +18 прохладно 1014.6 999.7 +6.2
06 27.06 СВ 3 50 км 6/4 600 м
[Cu Sc Ci sp]
+18.9 +2.6 34 +19 +25 по сезону 1013.8 999.2
09 27.06 З 1 20 км в посл. час ливневой дождь 9/8 300 м
[Cb calv Ci fib]
+14.7 +9.1 69 +15 +18 холодно 1013.8 999.0

 

Местоположение метеостанции Серов (Свердловская область, Россия): широта 59.60 долгота 60.53 высота над уровнем моря 130 м.

В архиве по умолчанию представлена погода в Серове за последнюю неделю. Архивные данные за месяц целиком и за предыдущие месяцы, начиная с января 2011 года, Вы можете получить, выбрав интересующий диапазон дат из раскрывающегося списка и нажав кнопку "Ввод!".


*Определитесь, кто Вы:
робот инопланетянин человек

Внимание! Время в таблицах - всемирное. Для получения местного времени необходимо прибавить поправку, которая равна 5 ч.

Смотрите также архив погоды в соседних городах и на ближайших метеорологических станциях:

Погода в Карпинске (Свердловская область, Россия) (34 км)
Погода в Кытлыме (Свердловская область, Россия) (75 км)
Погода в Североуральске (Свердловская область, Россия) (76 км)
Погода в Верхотурье (Свердловская область, Россия) (82 км)
Погода в Гарях (Свердловская область, Россия) (103 км)
Погода в Качканаре (Свердловская область, Россия) (117 км)
Погода в Ивделе (Свердловская область, Россия) (120 км)
Погода в Кушве (Свердловская область, Россия) (149 км)
Погода в Бисере (Пермский край, Россия) (154 км)
Погода в Атымье (Свердловская область, Россия) (184 км)

Пояснения к столбцам:

Ветер - указаны скорость ветра в м/с - средняя за 10 мин, порывы в срок и между сроками (в фигурных скобках) и направление, откуда дует ветер: С - северный, СВ - северо-восточный, В - восточный, ЮВ - юго-восточный, Ю - южный, ЮЗ - юго-западный, З - западный, СЗ - северо-западный.
Видимость - горизонтальная дальность видимости в метрах или километрах. При видимости от 1 до 10 км при отсутствии осадков обычно наблюдается дымка, при ухудшении видимости до 1 км и менее - туман. В сухую погоду видимость может ухудшаться дымом, пылью или мглою.
Явления - указаны атмосферные явления, наблюдавшиеся в срок или в последний час перед сроком; фигурными скобками обозначены явления, наблюдавшиеся между сроками (за 1-3 часа до срока); квадратными скобками обозначены град или гололедные отложения с указанием их диаметра в мм.
Облачность - указаны через наклонную черту общая и нижняя облачность в баллах и высота нижней границы облаков в метрах; квадратными скобками обозначены формы облаков: Ci - перистые, Cs - перисто-слоистые, Cc - перисто-кучевые, Ac - высококучевые, As - высокослоистые, Sc - слоисто-кучевые, Ns - слоисто-дождевые, Cu - кучевые, Cb - кучево-дождевые. Подробнее классификацию облаков см. в Атласе облаков (PDF).
T - Температура воздуха - температура, измеренная на высоте 2 м над землей.
Td - Температура точки росы - температура, при понижении до которой содержащийся в воздухе водяной пар достигнет насыщения.
f - Относительная влажность воздуха - влажноcть воздуха, измеренная на высоте 2 м над землей.
Te - Эффективная температура - температура, которую ощущает одетый по сезону человек в тени. Характеристика душности погоды. При расчете учитывается влияние влажности воздуха и скорости ветра на теплоощущения человека.
Tes - Эффективная температура на солнце - температура, которую ощущает человек, с поправкой на солнечный нагрев. Характеристика знойности погоды. Зависит от высоты солнца над горизонтом, облачности и скорости ветра. Ночью, в пасмурную погоду, а также при ветре 12 м/с и более поправка равна нулю.
P - Атмосферное давление - приведенное к уровню моря атмосферное давление.
Po - Атмосферное давление - измеренное на уровне метеостанции атмосферное давление.
Tmin - Минимальная температура - минимум температуры воздуха на высоте 2 м над землей.
Tmax - Максимальная температура - максимум температуры воздуха на высоте 2 м над землей.
R - Количество осадков - Количество выпавших осадков за период времени, мм. При наведении курсора мыши на число - период времени, за который выпало указанное количество осадков.
R24 - Количество осадков - Количество выпавших осадков за 24 часа, мм.
S - Снежный покров - Высота снежного покрова, см. При наведении курсора мыши на число - состояние снежного покрова и степень покрытия местности в баллах.